"startDT [UTC]","vpos","CH4 [ppm]","stdev(CH4) [ppm]","CO2 [ppm]","stdev(CO2) [ppm]","H2O_reported [%]","stdev(H2O_reported)","CavityPressure [torr]","CavityTemp [C]","OutletValve","CH4_dry [ppm]","CO2_dry [ppm]","DasTemp [C]","EtalonTemp [C]","WarmBoxTemp [C]","MPVPosition","T_ECpre [C]","T_EC1 [C]","T_EC2 [C]","p_inlet [hPa]","p_in [hPa]","p_out [hPa]","T_inlet [C]","RH_inlet [%]","dwpt_inlet [C]","T_vent [C]","RH_vent [%]","dwpt_vent [C]","flow_vent [l min-1]","flow_inlet [l min-1]","dwpt_sample [C]","T_room [C]"
2015-07-22 00:00:00,0.0,1.91818,0.00087,382.931,0.131,1.1091,0.0015,140.000,45.000,34283.11018,1.93995,388.217,32.374,45.068,45.000,0.00,0.10,-272.74,-272.80,-6,988,-4,22.5,32.1,5.0,22.3,33.0,5.2,5.73,1.96,1.3,26.6
2015-07-22 00:01:00,0.0,1.91777,0.00055,382.954,0.132,1.1066,0.0023,140.000,45.000,34281.87216,1.93936,388.237,32.375,45.068,45.000,0.00,0.10,-272.74,-272.80,-6,988,-4,22.5,32.0,4.9,22.2,32.9,5.1,5.73,1.98,1.3,26.6
2015-07-22 00:02:00,0.0,1.91867,0.00165,383.054,0.078,1.1038,0.0031,139.999,45.000,34282.63591,1.94021,388.328,32.375,45.068,45.000,0.00,0.10,-272.74,-272.80,-5,988,-4,22.5,31.9,4.9,22.2,32.8,5.1,5.73,1.80,1.3,26.5
2015-07-22 00:03:00,0.0,1.91976,0.00198,383.047,0.062,1.1009,0.0019,140.001,45.000,34281.66242,1.94114,388.303,32.372,45.068,45.000,0.00,0.10,-272.74,-272.79,-6,988,-4,22.5,31.8,4.9,22.2,32.7,5.1,5.73,1.98,1.3,26.6
2015-07-22 00:04:00,0.0,1.92094,0.00124,382.962,0.074,1.0984,0.0020,140.003,45.000,34282.81573,1.94262,388.206,32.375,45.068,45.000,0.00,0.10,-272.74,-272.80,-5,988,-4,22.5,31.8,4.8,22.2,32.6,5.0,5.73,1.95,1.3,26.6
2015-07-22 00:05:00,0.0,1.92247,0.00126,382.898,0.062,1.0982,0.0025,139.999,45.000,34282.04927,1.94402,388.142,32.357,45.068,45.000,0.00,0.10,-272.74,-272.80,-6,988,-4,22.4,31.8,4.8,22.2,32.6,5.0,5.73,1.80,1.3,26.6
2015-07-22 00:06:00,0.0,1.92139,0.00211,382.892,0.126,1.1006,0.0022,140.002,45.000,34281.98160,1.94268,388.143,32.331,45.068,45.000,0.00,0.10,-272.74,-272.80,-6,988,-4,22.5,31.8,4.9,22.2,32.7,5.1,5.73,2.00,1.3,26.6
2015-07-22 00:07:00,0.0,1.92368,0.00169,382.822,0.059,1.1025,0.0023,140.000,45.000,34279.80644,1.94536,388.080,32.323,45.068,45.000,0.00,0.10,-272.74,-272.80,-5,988,-4,22.5,31.9,4.9,22.2,32.7,5.1,5.73,1.93,1.3,26.6
2015-07-22 00:08:00,0.0,1.92284,0.00169,382.862,0.055,1.1043,0.0025,139.999,45.000,34281.29491,1.94474,388.130,32.340,45.069,45.000,0.00,0.10,-272.74,-272.81,-6,988,-4,22.5,32.0,4.9,22.2,32.8,5.1,5.73,1.81,1.3,26.6
2015-07-22 00:09:00,0.0,1.92251,0.00206,382.775,0.115,1.1060,0.0018,139.997,45.000,34279.90659,1.94411,388.061,32.338,45.069,45.000,0.00,0.10,-272.74,-272.80,-5,988,-4,22.5,32.0,5.0,22.2,32.9,5.1,5.73,2.01,1.3,26.6
2015-07-22 00:10:00,0.0,1.92237,0.00156,382.623,0.078,1.1100,0.0016,140.000,45.000,34280.25489,1.94416,387.916,32.359,45.068,45.000,0.00,0.10,-272.74,-272.79,-6,988,-4,22.5,32.1,5.0,22.2,33.0,5.2,5.73,1.91,1.3,26.6
2015-07-22 00:11:00,0.0,1.92345,0.00179,382.620,0.074,1.1106,0.0022,139.998,45.000,34281.30366,1.94497,387.917,32.340,45.068,45.000,0.00,0.10,-272.74,-272.80,-6,988,-4,22.5,32.2,5.0,22.2,33.0,5.2,5.73,1.83,1.3,26.6
2015-07-22 00:12:00,0.0,1.91814,0.00170,382.760,0.082,1.1116,0.0017,139.998,45.000,34282.72038,1.94035,388.067,32.330,45.068,45.000,0.00,0.10,-272.74,-272.80,-5,988,-4,22.5,32.2,5.0,22.2,33.1,5.2,5.73,2.02,1.3,26.6
2015-07-22 00:13:00,0.0,1.91619,0.00116,382.658,0.115,1.1161,0.0023,140.002,45.000,34283.98632,1.93805,387.977,32.328,45.068,45.000,0.00,0.10,-272.74,-272.79,-6,988,-4,22.5,32.3,5.1,22.3,33.2,5.3,5.73,1.89,1.3,26.6
2015-07-22 00:14:00,0.0,1.91535,0.00087,382.941,0.078,1.1165,0.0015,139.997,45.000,34282.82475,1.93716,388.270,32.331,45.068,45.000,0.00,0.10,-272.73,-272.80,-5,988,-4,22.5,32.3,5.1,22.2,33.2,5.3,5.73,1.84,1.3,26.6
2015-07-22 00:15:00,0.0,1.91562,0.00149,383.000,0.123,1.1143,0.0018,140.001,44.999,34282.26805,1.93727,388.326,32.351,45.068,45.000,0.00,0.10,-272.75,-272.81,-6,988,-4,22.5,32.3,5.1,22.2,33.2,5.3,5.73,2.03,1.3,26.6
2015-07-22 00:16:00,0.0,1.91998,0.00279,382.778,0.038,1.1148,0.0025,140.001,45.000,34281.81926,1.94173,388.099,32.374,45.068,45.000,0.00,0.10,-272.73,-272.79,-6,988,-4,22.5,32.3,5.0,22.2,33.1,5.2,5.73,1.86,1.3,26.6
2015-07-22 00:17:00,0.0,1.91887,0.00126,382.792,0.092,1.1162,0.0022,139.996,45.001,34278.57824,1.94063,388.117,32.375,45.068,45.000,0.00,0.10,-272.73,-272.80,-5,988,-4,22.5,32.3,5.1,22.2,33.2,5.3,5.73,1.86,1.3,26.6
2015-07-22 00:18:00,0.0,1.91740,0.00255,382.871,0.088,1.1170,0.0018,139.999,45.002,34282.63174,1.93952,388.204,32.375,45.068,45.000,0.00,0.10,-272.74,-272.80,-6,988,-4,22.5,32.3,5.1,22.2,33.2,5.3,5.73,2.03,1.3,26.6
2015-07-22 00:19:00,0.0,1.91671,0.00120,382.874,0.095,1.1190,0.0020,140.000,45.001,34283.79421,1.93863,388.218,32.371,45.068,45.000,0.00,0.10,-272.74,-272.80,-5,988,-4,22.5,32.4,5.1,22.2,33.3,5.3,5.73,1.85,1.3,26.6
2015-07-22 00:20:00,0.0,1.91453,0.00134,382.938,0.073,1.1205,0.0025,140.003,45.001,34284.90950,1.93645,388.288,32.375,45.068,45.000,0.00,0.10,-272.73,-272.80,-6,989,-4,22.5,32.4,5.1,22.3,33.3,5.3,5.73,1.87,1.3,26.6
2015-07-22 00:21:00,0.0,1.91453,0.00111,383.000,0.085,1.1225,0.0021,140.000,45.000,34282.98470,1.93640,388.358,32.375,45.068,45.000,0.00,0.10,-272.74,-272.80,-6,988,-4,22.5,32.4,5.1,22.2,33.3,5.3,5.73,2.02,1.3,26.6
2015-07-22 00:22:00,0.0,1.91394,0.00132,383.052,0.055,1.1191,0.0017,139.999,45.000,34282.48348,1.93590,388.401,32.376,45.068,45.000,0.00,0.10,-272.74,-272.81,-5,988,-4,22.5,32.4,5.1,22.2,33.3,5.3,5.73,1.85,1.3,26.6
2015-07-22 00:23:00,0.0,1.91283,0.00042,382.910,0.117,1.1200,0.0017,139.997,44.999,34283.94170,1.93470,388.265,32.383,45.068,45.000,0.00,0.10,-272.73,-272.80,-6,988,-4,22.5,32.4,5.1,22.2,33.3,5.3,5.73,1.87,1.3,26.6
2015-07-22 00:24:00,0.0,1.91232,0.00064,383.006,0.150,1.1229,0.0025,139.997,44.999,34285.67307,1.93425,388.364,32.424,45.068,45.000,0.00,0.10,-272.74,-272.80,-5,988,-4,22.5,32.5,5.2,22.3,33.4,5.4,5.73,2.02,1.3,26.6
2015-07-22 00:25:00,0.0,1.91164,0.00058,383.031,0.114,1.1229,0.0018,140.001,45.000,34285.61392,1.93361,388.397,32.422,45.068,45.000,0.00,0.10,-272.74,-272.80,-6,989,-4,22.5,32.5,5.2,22.2,33.4,5.4,5.73,1.85,1.4,26.6
2015-07-22 00:26:00,0.0,1.91247,0.00081,382.821,0.140,1.1236,0.0021,140.003,44.999,34285.22909,1.93428,388.179,32.419,45.068,45.000,0.00,0.31,-270.89,-270.10,-6,988,-4,22.5,32.5,5.2,22.3,33.4,5.4,5.43,2.10,-2.2,26.6
2015-07-22 00:27:00,0.0,1.91244,0.00119,383.081,0.114,1.1233,0.0020,139.999,45.000,34283.68377,1.93442,388.454,32.423,45.068,45.000,0.00,0.10,-272.74,-272.79,-5,988,-4,22.5,32.5,5.2,22.2,33.4,5.4,5.73,2.03,1.4,26.6
2015-07-22 00:28:00,0.0,1.91052,0.00140,383.272,0.143,1.1200,0.0027,139.997,45.000,34284.66461,1.93241,388.614,32.432,45.068,45.000,0.00,0.10,-272.74,-272.80,-6,989,-4,22.5,32.4,5.1,22.3,33.3,5.3,5.73,1.84,1.3,26.6
2015-07-22 00:29:00,0.0,1.90942,0.00051,383.463,0.089,1.1154,0.0026,140.006,45.000,34285.16611,1.93125,388.794,32.438,45.068,45.000,0.00,0.10,-272.74,-272.80,-5,988,-4,22.5,32.2,5.0,22.3,33.2,5.3,5.73,1.88,1.3,26.7
2015-07-22 00:30:00,0.0,1.90878,0.00032,383.521,0.083,1.1108,0.0021,140.000,45.000,34282.30436,1.93038,388.831,32.438,45.068,45.000,0.00,0.10,-272.74,-272.79,-6,989,-4,22.5,32.0,5.0,22.3,33.0,5.2,5.73,2.03,1.4,26.6
2015-07-22 00:31:00,0.0,1.90816,0.00067,383.555,0.057,1.1061,0.0020,139.999,45.000,34282.04115,1.92979,388.845,32.436,45.068,45.000,0.00,0.10,-272.73,-272.80,-6,988,-4,22.5,31.9,4.9,22.2,32.8,5.1,5.73,1.84,1.4,26.6
2015-07-22 00:32:00,0.0,1.90756,0.00046,383.576,0.069,1.1007,0.0023,140.003,45.000,34283.03784,1.92890,388.836,32.422,45.068,45.000,0.00,0.10,-272.73,-272.80,-5,989,-4,22.5,31.7,4.8,22.3,32.7,5.1,5.73,1.88,1.4,26.6
2015-07-22 00:33:00,0.0,1.90711,0.00054,383.640,0.060,1.0967,0.0022,139.998,45.000,34281.72331,1.92851,388.887,32.435,45.068,45.000,0.00,0.10,-272.73,-272.80,-6,989,-4,22.5,31.6,4.8,22.3,32.5,5.0,5.73,2.02,1.4,26.7
2015-07-22 00:34:00,0.0,1.90668,0.00056,383.570,0.051,1.0944,0.0014,139.997,45.000,34281.85013,1.92795,388.800,32.440,45.068,45.000,0.00,0.10,-272.74,-272.80,-5,988,-4,22.5,31.6,4.7,22.3,32.5,5.0,5.73,1.84,1.4,26.7
2015-07-22 00:35:00,0.0,1.90700,0.00068,383.513,0.043,1.0901,0.0032,140.001,45.000,34284.06949,1.92819,388.725,32.438,45.068,45.000,0.00,0.10,-272.74,-272.80,-6,989,-4,22.5,31.4,4.6,22.3,32.3,4.9,5.73,1.87,1.4,26.6
2015-07-22 00:36:00,0.0,1.90727,0.00048,383.548,0.087,1.0809,0.0034,140.001,45.000,34284.92355,1.92825,388.710,32.470,45.068,45.000,0.00,0.10,-272.74,-272.80,-6,989,-4,22.5,31.1,4.5,22.3,32.1,4.8,5.73,2.02,1.4,26.6
2015-07-22 00:37:00,0.0,1.90708,0.00045,383.391,0.084,1.0765,0.0022,139.998,45.000,34282.59127,1.92807,388.541,32.483,45.068,45.000,0.00,0.10,-272.74,-272.80,-5,989,-4,22.5,31.0,4.5,22.3,31.9,4.7,5.73,1.85,1.4,26.7
2015-07-22 00:38:00,0.0,1.90779,0.00116,383.291,0.109,1.0786,0.0019,139.998,45.000,34284.96809,1.92857,388.435,32.499,45.068,45.000,0.00,0.10,-272.74,-272.81,-6,989,-4,22.5,31.1,4.5,22.3,32.0,4.7,5.73,1.87,1.4,26.7
2015-07-22 00:39:00,0.0,1.90775,0.00093,383.409,0.062,1.0795,0.0028,139.998,45.000,34286.15660,1.92885,388.561,32.500,45.068,45.000,0.00,0.10,-272.74,-272.80,-6,989,-4,22.5,31.1,4.5,22.3,32.0,4.8,5.73,2.02,1.4,26.7
2015-07-22 00:40:00,0.0,1.90710,0.00050,383.351,0.114,1.0804,0.0016,140.000,45.000,34285.08892,1.92810,388.508,32.500,45.068,45.000,0.00,0.10,-272.73,-272.79,-6,989,-4,22.5,31.1,4.5,22.3,32.0,4.8,5.73,1.85,1.4,26.7
2015-07-22 00:41:00,0.0,1.90676,0.00062,383.339,0.207,1.0819,0.0017,140.002,45.000,34285.44106,1.92789,388.516,32.500,45.068,45.000,0.00,0.10,-272.74,-272.80,-6,989,-4,22.5,31.1,4.5,22.3,32.0,4.8,5.73,1.87,1.4,26.7
2015-07-22 00:42:00,0.0,1.90606,0.00048,383.133,0.141,1.0840,0.0018,140.002,45.000,34289.25174,1.92711,388.297,32.504,45.068,45.000,0.00,0.10,-272.75,-272.80,-5,989,-4,22.5,31.2,4.6,22.3,32.1,4.8,5.73,2.02,1.4,26.7
2015-07-22 00:43:00,0.0,1.90592,0.00046,383.249,0.151,1.0852,0.0019,139.999,45.000,34288.45923,1.92697,388.435,32.527,45.068,45.000,0.00,0.10,-272.74,-272.79,-6,989,-4,22.5,31.3,4.6,22.3,32.2,4.8,5.73,1.85,1.4,26.7
2015-07-22 00:44:00,0.0,1.90523,0.00047,383.376,0.116,1.0883,0.0014,139.999,45.000,34287.87567,1.92640,388.567,32.541,45.068,45.000,0.00,0.10,-272.73,-272.79,-6,988,-4,22.5,31.4,4.7,22.3,32.3,4.9,5.73,1.86,1.4,26.7
2015-07-22 00:45:00,0.0,1.90482,0.00040,383.306,0.083,1.0880,0.0020,139.999,45.000,34288.31450,1.92598,388.506,32.522,45.068,45.000,0.00,0.10,-272.74,-272.81,-5,989,-4,22.5,31.3,4.7,22.3,32.2,4.9,5.73,2.02,1.4,26.6
2015-07-22 00:46:00,0.0,1.90510,0.00068,383.382,0.106,1.0879,0.0021,139.998,45.000,34287.23279,1.92616,388.569,32.548,45.068,45.000,0.00,0.10,-272.74,-272.80,-6,989,-4,22.5,31.3,4.7,22.3,32.2,4.9,5.73,1.87,1.4,26.6
2015-07-22 00:47:00,0.0,1.90446,0.00036,383.420,0.050,1.0882,0.0023,139.999,45.000,34285.45217,1.92560,388.616,32.561,45.068,45.000,0.00,0.10,-272.73,-272.80,-5,989,-4,22.5,31.3,4.7,22.3,32.2,4.9,5.73,1.85,1.4,26.7
2015-07-22 00:48:00,0.0,1.90446,0.00049,383.492,0.102,1.0857,0.0021,140.001,45.000,34288.01349,1.92558,388.680,32.563,45.068,45.000,0.00,0.10,-272.74,-272.80,-6,989,-4,22.5,31.3,4.6,22.3,32.2,4.8,5.73,2.03,1.4,26.6
2015-07-22 00:49:00,0.0,1.90382,0.00037,383.484,0.066,1.0848,0.0021,140.002,45.000,34290.63667,1.92491,388.663,32.563,45.068,45.000,0.00,0.10,-272.74,-272.80,-6,989,-4,22.5,31.2,4.6,22.3,32.1,4.8,5.73,1.87,1.4,26.6
2015-07-22 00:50:00,0.0,1.90406,0.00063,383.514,0.069,1.0811,0.0024,139.999,45.000,34289.28703,1.92501,388.685,32.563,45.068,45.000,0.00,0.10,-272.73,-272.80,-5,989,-4,22.5,31.1,4.6,22.3,32.0,4.8,5.73,1.85,1.4,26.6
2015-07-22 00:51:00,0.0,1.90438,0.00044,383.534,0.063,1.0786,0.0030,140.000,45.000,34289.66387,1.92531,388.685,32.563,45.068,45.000,0.00,0.10,-272.74,-272.80,-6,989,-4,22.5,31.0,4.5,22.3,32.0,4.7,5.73,2.02,1.4,26.6
2015-07-22 00:52:00,0.0,1.90398,0.00051,383.491,0.054,1.0776,0.0022,140.001,45.000,34290.37817,1.92490,388.641,32.563,45.068,45.000,0.00,0.10,-272.75,-272.81,-6,989,-4,22.5,30.9,4.5,22.3,31.9,4.7,5.73,1.87,1.4,26.7
2015-07-22 00:53:00,0.0,1.90435,0.00044,383.423,0.111,1.0772,0.0025,140.000,45.000,34291.86702,1.92522,388.560,32.563,45.068,45.000,0.00,0.10,-272.73,-272.80,-6,989,-4,22.5,30.9,4.5,22.3,31.9,4.7,5.73,1.85,1.4,26.7
2015-07-22 00:54:00,0.0,1.90421,0.00041,383.459,0.076,1.0757,0.0019,139.996,45.000,34291.94750,1.92510,388.600,32.562,45.068,45.000,0.00,0.10,-272.73,-272.79,-6,989,-4,22.5,30.9,4.5,22.3,31.8,4.7,5.73,2.02,1.4,26.7
2015-07-22 00:55:00,0.0,1.90388,0.00061,383.512,0.105,1.0745,0.0025,140.000,45.000,34292.20349,1.92475,388.644,32.563,45.068,45.000,0.00,0.10,-272.74,-272.80,-5,989,-4,22.5,30.8,4.5,22.3,31.8,4.7,5.73,1.88,1.4,26.7
2015-07-22 00:56:00,0.0,1.90460,0.00033,383.440,0.039,1.0724,0.0017,140.002,45.000,34293.15851,1.92534,388.559,32.563,45.068,45.000,0.00,0.10,-272.73,-272.80,-6,989,-4,22.5,30.8,4.4,22.3,31.7,4.7,5.73,1.85,1.4,26.7
2015-07-22 00:57:00,0.0,1.90446,0.00069,383.483,0.053,1.0709,0.0018,140.003,45.000,34291.92568,1.92524,388.595,32.564,45.068,45.000,0.00,0.10,-272.73,-272.79,-6,989,-4,22.5,30.8,4.4,22.3,31.7,4.6,5.73,2.02,1.4,26.7
2015-07-22 00:58:00,0.0,1.90399,0.00030,383.405,0.087,1.0701,0.0019,140.000,45.000,34292.81648,1.92477,388.518,32.567,45.068,45.000,0.00,0.10,-272.74,-272.80,-5,989,-4,22.5,30.7,4.4,22.3,31.6,4.6,5.73,1.87,1.4,26.7
2015-07-22 00:59:00,0.0,1.90375,0.00056,383.279,0.104,1.0699,0.0025,139.997,45.000,34291.62224,1.92452,388.386,32.563,45.068,45.000,0.00,0.10,-272.74,-272.80,-6,989,-4,22.5,30.8,4.4,22.3,31.7,4.6,5.73,1.84,1.4,26.7
2015-07-22 01:00:00,0.0,1.90438,0.00045,383.239,0.087,1.0750,0.0031,140.001,45.000,34294.97331,1.92521,388.364,32.563,45.068,45.000,0.00,0.10,-272.74,-272.80,-5,989,-4,22.5,30.9,4.5,22.3,31.8,4.7,5.73,2.02,1.4,26.7
2015-07-22 01:01:00,0.0,1.90356,0.00043,383.091,0.120,1.0787,0.0024,139.999,45.000,34295.72070,1.92451,388.248,32.562,45.068,45.000,0.00,0.10,-272.74,-272.80,-6,990,-4,22.5,31.0,4.6,22.3,31.9,4.7,5.73,1.88,1.4,26.7
2015-07-22 01:02:00,0.0,1.90465,0.00067,383.043,0.104,1.0820,0.0023,139.999,45.000,34296.59045,1.92556,388.199,32.562,45.068,45.000,0.00,0.10,-272.74,-272.81,-6,989,-4,22.5,31.1,4.6,22.3,32.0,4.8,5.73,1.84,1.4,26.7
2015-07-22 01:03:00,0.0,1.90434,0.00077,383.111,0.075,1.0831,0.0021,140.001,45.000,34295.31869,1.92542,388.276,32.563,45.068,45.000,0.00,0.10,-272.73,-272.80,-5,990,-4,22.5,31.1,4.6,22.3,32.0,4.8,5.73,2.02,1.4,26.7
2015-07-22 01:04:00,0.0,1.90370,0.00037,383.037,0.070,1.0843,0.0016,139.998,45.000,34295.04854,1.92474,388.214,32.561,45.068,45.000,0.00,0.10,-272.73,-272.80,-6,990,-4,22.5,31.1,4.6,22.3,32.1,4.8,5.73,1.88,1.4,26.7
2015-07-22 01:05:00,0.0,1.90459,0.00061,383.118,0.035,1.0838,0.0018,140.004,45.000,34295.55218,1.92557,388.287,32.559,45.068,45.000,0.00,0.10,-272.74,-272.80,-5,989,-4,22.5,31.2,4.6,22.3,32.1,4.8,5.73,1.83,1.4,26.7
2015-07-22 01:06:00,0.0,1.90388,0.00069,383.156,0.049,1.0870,0.0018,140.003,45.000,34296.68069,1.92502,388.343,32.561,45.068,45.000,0.00,0.10,-272.74,-272.80,-6,990,-4,22.5,31.2,4.6,22.3,32.1,4.9,5.73,2.02,1.4,26.7
2015-07-22 01:07:00,0.0,1.90335,0.00046,383.176,0.054,1.0893,0.0020,139.999,45.000,34293.99170,1.92452,388.376,32.553,45.068,45.000,0.00,0.10,-272.73,-272.79,-6,989,-4,22.5,31.3,4.7,22.3,32.2,4.9,5.73,1.89,1.4,26.7
2015-07-22 01:08:00,0.0,1.90307,0.00056,383.207,0.054,1.0911,0.0021,139.999,44.999,34292.10287,1.92427,388.415,32.551,45.068,45.000,0.00,0.10,-272.74,-272.80,-5,989,-4,22.5,31.4,4.7,22.3,32.3,4.9,5.73,1.82,1.4,26.7
2015-07-22 01:09:00,0.0,1.90364,0.00127,383.092,0.082,1.0938,0.0020,140.001,45.000,34290.78981,1.92471,388.315,32.540,45.068,45.000,0.00,0.10,-272.74,-272.81,-6,989,-4,22.5,31.4,4.7,22.3,32.3,5.0,5.73,2.00,1.5,26.7
2015-07-22 01:10:00,0.0,1.90359,0.00040,383.142,0.059,1.0953,0.0021,139.999,45.000,34293.10384,1.92497,388.369,32.537,45.068,45.000,0.00,0.10,-272.73,-272.79,-6,989,-4,22.5,31.5,4.8,22.3,32.4,5.0,5.73,1.91,1.4,26.7
2015-07-22 01:11:00,0.0,1.90253,0.00070,383.125,0.078,1.0973,0.0018,140.000,45.001,34295.41920,1.92387,388.367,32.538,45.068,45.000,0.00,0.10,-272.73,-272.80,-6,990,-4,22.5,31.6,4.8,22.3,32.5,5.0,5.73,1.81,1.4,26.7
2015-07-22 01:12:00,0.0,1.90204,0.00102,383.090,0.042,1.0985,0.0018,139.998,45.001,34297.01090,1.92327,388.331,32.531,45.068,45.000,0.00,0.10,-272.74,-272.80,-6,989,-4,22.5,31.6,4.8,22.3,32.5,5.0,5.73,2.00,1.4,26.7
2015-07-22 01:13:00,0.0,1.90214,0.00069,383.054,0.094,1.0996,0.0025,140.003,45.000,34298.06458,1.92351,388.305,32.562,45.068,45.000,0.00,0.10,-272.74,-272.80,-5,989,-4,22.5,31.6,4.8,22.3,32.5,5.0,5.73,1.93,1.4,26.7
2015-07-22 01:14:00,0.0,1.90191,0.00088,383.159,0.050,1.0985,0.0017,140.002,45.000,34298.02458,1.92322,388.398,32.566,45.068,45.000,0.00,0.10,-272.73,-272.79,-6,990,-4,22.5,31.6,4.8,22.3,32.5,5.0,5.73,1.81,1.5,26.8
2015-07-22 01:15:00,0.0,1.90233,0.00054,383.158,0.045,1.0993,0.0020,139.999,45.000,34295.12141,1.92366,388.411,32.582,45.068,45.000,0.00,0.10,-272.74,-272.81,-6,989,-4,22.5,31.5,4.8,22.3,32.5,5.0,5.73,1.99,1.5,26.7
2015-07-22 01:16:00,0.0,1.90172,0.00056,383.093,0.048,1.0969,0.0015,139.997,45.000,34296.99938,1.92301,388.328,32.596,45.068,45.000,0.00,0.10,-272.74,-272.80,-5,990,-4,22.6,31.5,4.8,22.3,32.4,5.0,5.73,1.95,1.5,26.7
2015-07-22 01:17:00,0.0,1.90158,0.00046,383.146,0.048,1.0932,0.0029,139.998,45.000,34295.07504,1.92275,388.365,32.596,45.068,45.000,0.00,0.10,-272.73,-272.80,-6,990,-4,22.6,31.4,4.7,22.3,32.3,5.0,5.73,1.80,1.5,26.7
2015-07-22 01:18:00,0.0,1.90155,0.00061,383.080,0.057,1.0932,0.0019,140.000,45.000,34296.72830,1.92271,388.300,32.568,45.068,45.000,0.00,0.10,-272.73,-272.80,-5,990,-4,22.5,31.4,4.7,22.3,32.3,5.0,5.73,1.97,1.5,26.7
2015-07-22 01:19:00,0.0,1.90160,0.00085,383.059,0.072,1.0933,0.0018,140.000,45.000,34296.89428,1.92293,388.276,32.562,45.068,45.000,0.00,0.10,-272.74,-272.80,-6,990,-4,22.6,31.4,4.7,22.3,32.3,4.9,5.73,1.96,1.5,26.8
2015-07-22 01:20:00,0.0,1.90140,0.00064,383.021,0.073,1.0947,0.0022,139.998,45.000,34297.70504,1.92258,388.251,32.562,45.068,45.000,0.00,0.10,-272.73,-272.80,-6,989,-4,22.6,31.4,4.7,22.3,32.3,4.9,5.73,1.80,1.5,26.7
2015-07-22 01:21:00,0.0,1.90122,0.00081,383.031,0.068,1.0944,0.0016,139.999,45.000,34296.05237,1.92240,388.250,32.563,45.068,45.000,0.00,0.10,-272.74,-272.79,-5,990,-4,22.6,31.4,4.7,22.3,32.3,5.0,5.73,1.95,1.5,26.7
2015-07-22 01:22:00,0.0,1.90155,0.00076,382.890,0.115,1.0936,0.0029,139.999,45.000,34295.20280,1.92278,388.110,32.563,45.068,45.000,0.00,0.10,-272.74,-272.80,-6,990,-4,22.6,31.3,4.7,22.3,32.3,4.9,5.73,1.98,1.5,26.7
2015-07-22 01:23:00,0.0,1.90130,0.00050,382.915,0.110,1.0914,0.0022,140.002,45.000,34297.88214,1.92245,388.120,32.563,45.068,45.000,0.00,0.10,-272.74,-272.80,-6,990,-4,22.6,31.2,4.7,22.3,32.2,4.9,5.73,1.80,1.4,26.7
2015-07-22 01:24:00,0.0,1.90076,0.00045,382.960,0.069,1.0897,0.0020,140.000,45.000,34298.52202,1.92187,388.161,32.563,45.068,45.000,0.00,0.10,-272.73,-272.79,-6,990,-4,22.6,31.2,4.7,22.3,32.1,4.9,5.73,1.94,1.5,26.8
2015-07-22 01:25:00,0.0,1.90083,0.00034,382.965,0.092,1.0877,0.0017,139.999,45.000,34300.35667,1.92193,388.155,32.559,45.068,45.000,0.00,0.10,-272.74,-272.80,-6,990,-4,22.6,31.2,4.7,22.3,32.1,4.9,5.73,1.99,1.5,26.8
2015-07-22 01:26:00,0.0,1.90074,0.00075,382.882,0.143,1.0883,0.0020,139.997,45.000,34299.84982,1.92182,388.075,32.563,45.068,45.000,0.00,0.10,-272.73,-272.80,-5,989,-4,22.6,31.2,4.7,22.3,32.1,4.9,5.73,1.81,1.5,26.8
2015-07-22 01:27:00,0.0,1.90069,0.00036,382.922,0.056,1.0889,0.0019,139.999,45.000,34299.85204,1.92180,388.114,32.564,45.068,45.000,0.00,0.10,-272.73,-272.80,-6,990,-4,22.6,31.2,4.7,22.3,32.1,4.9,5.73,1.91,1.5,26.7
2015-07-22 01:28:00,0.0,1.90066,0.00036,382.975,0.070,1.0890,0.0022,139.996,45.000,34299.19996,1.92175,388.172,32.564,45.068,45.000,0.00,0.10,-272.74,-272.80,-6,990,-4,22.6,31.2,4.7,22.3,32.1,4.9,5.73,2.01,1.5,26.8
2015-07-22 01:29:00,0.0,1.90034,0.00042,382.906,0.061,1.0891,0.0014,140.001,45.000,34301.33057,1.92148,388.102,32.564,45.068,45.000,0.00,0.10,-272.74,-272.80,-5,989,-4,22.6,31.2,4.7,22.3,32.1,4.9,5.73,1.82,1.5,26.8
2015-07-22 01:30:00,0.0,1.89986,0.00044,382.989,0.147,1.0893,0.0023,139.998,45.000,34301.51896,1.92096,388.181,32.563,45.068,45.000,0.00,0.10,-272.73,-272.80,-6,990,-4,22.6,31.2,4.7,22.3,32.1,4.9,5.73,1.89,1.5,26.8
2015-07-22 01:31:00,0.0,1.90020,0.00049,383.152,0.038,1.0872,0.0023,140.000,45.000,34300.40850,1.92121,388.340,32.563,45.068,45.000,0.00,0.10,-272.74,-272.79,-6,990,-4,22.6,31.1,4.6,22.3,32.1,4.9,5.73,2.02,1.5,26.8
2015-07-22 01:32:00,0.0,1.90059,0.00045,383.243,0.045,1.0833,0.0027,140.001,45.000,34301.40245,1.92157,388.411,32.563,45.068,45.000,0.00,0.10,-272.74,-272.80,-6,990,-4,22.6,30.9,4.6,22.3,31.9,4.8,5.73,1.84,1.5,26.8
2015-07-22 01:33:00,0.0,1.90014,0.00059,383.191,0.094,1.0817,0.0019,139.998,45.000,34302.31133,1.92109,388.357,32.564,45.068,45.000,0.00,0.10,-272.73,-272.80,-7,990,-4,22.6,30.9,4.5,22.3,31.8,4.8,5.73,1.86,1.5,26.8
2015-07-22 01:34:00,0.0,1.89990,0.00044,383.213,0.105,1.0788,0.0021,139.999,45.000,34302.95093,1.92077,388.357,32.565,45.068,45.000,0.00,0.10,-272.73,-272.80,-5,990,-4,22.6,30.8,4.5,22.3,31.8,4.7,5.73,2.02,1.5,26.8
2015-07-22 01:35:00,0.0,1.90038,0.00069,383.260,0.093,1.0772,0.0017,140.001,45.000,34299.39163,1.92120,388.401,32.564,45.068,45.000,0.00,0.10,-272.74,-272.80,-6,990,-4,22.6,30.8,4.5,22.4,31.7,4.7,5.73,1.87,1.5,26.8
2015-07-22 01:36:00,0.0,1.90051,0.00047,383.363,0.046,1.0753,0.0020,139.997,45.000,34296.60256,1.92139,388.498,32.574,45.068,45.000,0.00,0.10,-272.74,-272.80,-6,990,-4,22.6,30.7,4.4,22.4,31.6,4.7,5.73,1.83,1.5,26.8
2015-07-22 01:37:00,0.0,1.90098,0.00035,383.359,0.043,1.0733,0.0023,139.999,45.000,34297.06389,1.92172,388.480,32.596,45.068,45.000,0.00,0.10,-272.74,-272.79,-5,990,-4,22.6,30.6,4.4,22.4,31.5,4.6,5.73,2.01,1.5,26.8
2015-07-22 01:38:00,0.0,1.90096,0.00054,383.291,0.059,1.0664,0.0028,140.001,45.000,34297.04201,1.92160,388.384,32.613,45.068,45.000,0.00,0.10,-272.74,-272.79,-7,990,-4,22.6,30.4,4.3,22.4,31.4,4.6,5.73,1.90,1.5,26.8
2015-07-22 01:39:00,0.0,1.90120,0.00050,383.256,0.096,1.0639,0.0019,139.998,45.000,34298.16931,1.92184,388.329,32.600,45.068,45.000,0.00,0.10,-272.74,-272.80,-6,990,-4,22.6,30.3,4.3,22.4,31.3,4.5,5.73,1.81,1.5,26.8
2015-07-22 01:40:00,0.0,1.90070,0.00051,383.224,0.045,1.0623,0.0018,139.998,45.000,34300.51557,1.92126,388.294,32.574,45.068,45.000,0.00,0.10,-272.73,-272.80,-6,990,-4,22.6,30.3,4.3,22.4,31.2,4.5,5.73,1.99,1.5,26.8
2015-07-22 01:41:00,0.0,1.90081,0.00035,383.207,0.074,1.0608,0.0019,139.996,45.000,34299.79482,1.92136,388.267,32.568,45.068,45.000,0.00,0.10,-272.73,-272.80,-6,990,-4,22.6,30.2,4.2,22.4,31.2,4.5,5.73,1.94,1.5,26.8
2015-07-22 01:42:00,0.0,1.90093,0.00043,383.210,0.071,1.0594,0.0019,140.002,45.000,34299.02504,1.92144,388.260,32.571,45.068,45.000,0.00,0.10,-272.73,-272.80,-5,990,-4,22.6,30.2,4.2,22.4,31.1,4.5,5.73,1.80,1.5,26.8
2015-07-22 01:43:00,0.0,1.90095,0.00046,383.299,0.059,1.0586,0.0027,140.002,45.000,34299.52956,1.92142,388.349,32.578,45.068,45.000,0.00,0.10,-272.74,-272.80,-6,990,-4,22.6,30.2,4.2,22.4,31.1,4.5,5.73,1.96,1.5,26.8
2015-07-22 01:44:00,0.0,1.90083,0.00042,383.314,0.066,1.0591,0.0028,139.999,45.000,34301.74820,1.92137,388.364,32.595,45.068,45.000,0.00,0.10,-272.73,-272.79,-6,990,-4,22.6,30.2,4.2,22.4,31.1,4.5,5.73,1.97,1.5,26.8
2015-07-22 01:45:00,0.0,1.90057,0.00050,383.285,0.069,1.0571,0.0015,139.999,45.000,34301.94849,1.92100,388.327,32.600,45.068,45.000,0.00,0.10,-272.74,-272.80,-5,991,-4,22.6,30.1,4.2,22.4,31.0,4.4,5.73,1.81,1.5,26.8
2015-07-22 01:46:00,0.0,1.90055,0.00042,383.360,0.113,1.0549,0.0021,140.000,45.000,34300.65607,1.92099,388.393,32.613,45.068,45.000,0.00,0.10,-272.75,-272.80,-7,990,-4,22.6,30.1,4.2,22.4,31.0,4.4,5.73,1.93,1.5,26.8
2015-07-22 01:47:00,0.0,1.90088,0.00052,383.446,0.092,1.0568,0.0021,139.997,45.000,34300.17079,1.92128,388.483,32.628,45.068,45.000,0.00,0.10,-272.74,-272.80,-6,990,-4,22.6,30.1,4.2,22.4,31.0,4.4,5.73,2.00,1.5,26.8
2015-07-22 01:48:00,0.0,1.90071,0.00053,383.333,0.130,1.0587,0.0018,140.002,45.000,34301.46023,1.92124,388.388,32.629,45.068,45.000,0.00,0.10,-272.73,-272.79,-6,991,-4,22.6,30.2,4.2,22.4,31.1,4.5,5.73,1.82,1.5,26.8